Home   Weather   Kristiansund   Past weeks

Flag for Norway Past Weather in Kristiansund, Norway — Yesterday and Last 2 Weeks

Now
55 °F

Passing clouds.


Feels Like: 54 °F
Forecast: 52 / 56 °F
Wind: 6 mph from Southwest

Location: Kristiansund / Kvernberget

Current Time: Sep 28, 2016 at 12:25:45 AM

Latest Report: Sep 27, 2016 at 11:50 PM


Visibility: N/A

Pressure: 29.39 "Hg

Humidity: 67%

Dew Point: 45 °F

Location of KristiansundLocation

Past Weather in Kristiansund — Graph

°F

Kristiansund Temperature Yesterday

Maximum temperature yesterday: 61 °F (at 5:50 PM)
Minimum temperature yesterday: 52 °F (at 12:20 AM)
Average temperature yesterday: 56 °F

High & Low Weather Summary for the Past Weeks

 TemperatureHumidityPressure
High77 °F (Sep 16, 5:20 PM)100% (Sep 14, 8:50 AM)30.18 "Hg (Sep 14, 8:50 AM)
Low46 °F (Sep 24, 12:20 AM)43% (Sep 25, 10:20 PM)29.42 "Hg (Sep 27, 8:20 PM)
Average59 °F82%30.03 "Hg
* Reported Sep 12 10:20 PM — Sep 27 10:50 PM, Kristiansund, Weather by CustomWeather, © 2016

Note: Actual official high and low records may vary slightly from our data, if they occured in-between our weather recording intervals... More about our weather records

Advertising

Kristiansund Weather History for the Previous 24 Hours

Scroll right to see more
 ConditionsComfort  
Time TempWeatherWind HumidityBarometerVisibility
10:50 PM
Tue, Sep 27
55 °FPassing clouds.13 mph72%29.42 "HgN/A
10:20 PM57 °FPassing clouds.15 mph67%29.42 "HgN/A
9:50 PM61 °FPassing clouds.13 mph52%29.42 "HgN/A
9:20 PM61 °FPassing clouds.14 mph52%29.42 "HgN/A
8:50 PM61 °FPartly cloudy.10 mph52%29.42 "HgN/A
8:20 PM61 °FPartly cloudy.8 mph52%29.42 "HgN/A
7:50 PM61 °FPassing clouds.12 mph52%29.45 "HgN/A
7:20 PM61 °FPassing clouds.15 mph52%29.47 "HgN/A
6:50 PM61 °FScattered clouds.16 mph52%29.47 "HgN/A
6:20 PM61 °FPassing clouds.17 mph52%29.53 "HgN/A
5:50 PM61 °FPassing clouds.14 mph48%29.56 "HgN/A
5:20 PM59 °FPassing clouds.9 mph55%29.62 "HgN/A
4:50 PM59 °FSunny.8 mph55%29.65 "Hg10 mi
4:20 PM59 °FPassing clouds.8 mph55%29.68 "HgN/A
3:50 PM59 °FScattered clouds.6 mph59%29.71 "HgN/A
3:20 PM57 °FScattered clouds.8 mph63%29.74 "HgN/A
2:50 PM57 °FSprinkles. Partly sunny.7 mph63%29.77 "HgN/A
2:20 PM57 °FSunny.7 mph67%29.80 "Hg10 mi
1:50 PM59 °FSunny.6 mph63%29.83 "Hg10 mi
1:20 PM57 °FPassing clouds.6 mph63%29.86 "HgN/A
12:50 PM57 °FLight rain. Partly sunny.6 mph59%29.89 "HgN/A
12:20 PM55 °FScattered showers. Partly sunny.5 mph67%29.92 "HgN/A
11:50 AM55 °FPassing clouds.5 mph72%29.92 "HgN/A
11:20 AM55 °FPassing clouds.6 mph67%29.95 "HgN/A
10:50 AM55 °FPassing clouds.7 mph67%29.95 "HgN/A
10:20 AM55 °FPassing clouds.6 mph67%29.98 "HgN/A
9:50 AM54 °FPassing clouds.5 mph72%29.98 "HgN/A
9:20 AM54 °FPassing clouds.6 mph77%30.01 "HgN/A
8:50 AM52 °FPassing clouds.3 mph82%30.01 "HgN/A
8:20 AM52 °FPassing clouds.5 mph88%30.01 "HgN/A
7:50 AM52 °FBroken clouds.5 mph88%30.04 "HgN/A
7:20 AM52 °FPassing clouds.6 mph88%30.04 "HgN/A
6:50 AM52 °FPassing clouds.6 mph88%30.04 "HgN/A
6:20 AM52 °FClear.6 mph88%30.07 "Hg10 mi
5:50 AM52 °FOvercast.6 mph88%30.07 "HgN/A
5:20 AM52 °FMostly cloudy.5 mph88%30.07 "HgN/A
4:50 AM52 °FOvercast.6 mph94%30.07 "HgN/A
4:20 AM52 °FMostly cloudy.5 mph88%30.09 "HgN/A
3:50 AM52 °FPassing clouds.5 mph88%30.09 "HgN/A
3:20 AM52 °FPassing clouds.6 mph88%30.09 "HgN/A
2:50 AM52 °FOvercast.5 mph88%30.09 "HgN/A
2:20 AM52 °FPassing clouds.6 mph94%30.09 "HgN/A
1:50 AM52 °FPassing clouds.6 mph94%30.12 "HgN/A
1:20 AM52 °FPassing clouds.2 mph88%30.12 "HgN/A
12:50 AM52 °FOvercast.5 mph94%30.12 "HgN/A
12:20 AM52 °FPassing clouds.3 mph94%30.12 "HgN/A
Weather by CustomWeather, © 2016

See weather overviewHow to use our weather pages